,,,PA_Meas_PMT16A,,PR_Meas_QMR101_102,,RH_Meas_QMH101,,SR_Meas_QMS101,,TA_Meas_QMH101,,GenWind,,GenWind,
date,time,status,PA,status,PR,status,RH,status,SR,status,TA,status,DirAvg,status,SpdAvg,
2008-11-18, 00:00:04,VALID,1006.43,VALID,0,VALID,95.0398,VALID,0,VALID,24.0253,VALID,77,VALID,0.564844,
2008-11-18, 00:01:04,VALID,1006.39,VALID,0,VALID,95.0398,VALID,0,VALID,24.0253,VALID,77,VALID,0.333203,
2008-11-18, 00:02:04,VALID,1006.4,VALID,0,VALID,95.055,VALID,0,VALID,24.0253,VALID,77,VALID,0.307031,
2008-11-18, 00:03:04,VALID,1006.4,VALID,0,VALID,95.0703,VALID,0,VALID,24.0253,VALID,77,VALID,0.523438,
2008-11-18, 00:04:04,VALID,1006.35,VALID,0,VALID,95.0626,VALID,0,VALID,24.0253,VALID,82,VALID,0.375,
2008-11-18, 00:05:04,VALID,1006.36,VALID,0,VALID,95.0703,VALID,0,VALID,24.0058,VALID,63,VALID,0.503125,
2008-11-18, 00:06:04,VALID,1006.38,VALID,0,VALID,95.055,VALID,0,VALID,24.0058,VALID,61,VALID,0.246094,
2008-11-18, 00:07:04,VALID,1006.34,VALID,0,VALID,95.0703,VALID,0,VALID,24.0058,VALID,60,VALID,0.40625,
2008-11-18, 00:08:04,VALID,1006.37,VALID,0,VALID,95.0703,VALID,0,VALID,23.9863,VALID,51,VALID,0.417188,
2008-11-18, 00:09:04,VALID,1006.35,VALID,0,VALID,95.0626,VALID,0,VALID,23.9668,VALID,62,VALID,0.450391,
2008-11-18, 00:10:04,VALID,1006.37,VALID,0,VALID,95.0703,VALID,0,VALID,23.9863,VALID,59,VALID,0.318359,
2008-11-18, 00:11:04,VALID,1006.37,VALID,0,VALID,95.0626,VALID,0,VALID,23.9455,VALID,59,VALID,0.0929687,
2008-11-18, 00:12:04,VALID,1006.36,VALID,0,VALID,95.0779,VALID,0,VALID,23.9881,VALID,59,VALID,0.197266,
2008-11-18, 00:13:04,VALID,1006.33,VALID,0,VALID,95.0779,VALID,0,VALID,23.9668,VALID,60,VALID,0.169922,
2008-11-18, 00:14:04,VALID,1006.3,VALID,0,VALID,95.0703,VALID,0,VALID,23.926,VALID,60,VALID,0.249609,
2008-11-18, 00:15:04,VALID,1006.29,VALID,0,VALID,95.1008,VALID,0,VALID,23.9863,VALID,100,VALID,0.735937,
2008-11-18, 00:16:04,VALID,1006.28,VALID,0,VALID,95.1008,VALID,0.105969,VALID,23.9668,VALID,100,VALID,0.322656,
2008-11-18, 00:17:04,VALID,1006.27,VALID,0,VALID,95.0855,VALID,0,VALID,23.9668,VALID,100,VALID,0.278906,
2008-11-18, 00:18:04,VALID,1006.26,VALID,0,VALID,95.1084,VALID,0,VALID,23.9863,VALID,100,VALID,0,
2008-11-18, 00:19:04,VALID,1006.27,VALID,0,VALID,95.1008,VALID,0,VALID,23.9863,VALID,107,VALID,0.436328,
2008-11-18, 00:20:04,VALID,1006.24,VALID,0,VALID,95.1008,VALID,0,VALID,23.9668,VALID,108,VALID,0.473047,
2008-11-18, 00:21:04,VALID,1006.27,VALID,0,VALID,95.1084,VALID,0,VALID,23.9668,VALID,108,VALID,0.557813,
2008-11-18, 00:22:04,VALID,1006.24,VALID,0,VALID,95.1008,VALID,0,VALID,23.9863,VALID,108,VALID,0.383594,
2008-11-18, 00:23:04,VALID,1006.23,VALID,0,VALID,95.0855,VALID,0,VALID,23.9668,VALID,79,VALID,0.553125,
2008-11-18, 00:24:04,VALID,1006.24,VALID,0,VALID,95.0931,VALID,0.105969,VALID,23.965,VALID,62,VALID,0.437891,
2008-11-18, 00:25:04,VALID,1006.22,VALID,0,VALID,95.0855,VALID,0,VALID,23.9863,VALID,55,VALID,0.510547,
2008-11-18, 00:26:04,VALID,1006.17,VALID,0,VALID,95.116,VALID,0,VALID,23.9668,VALID,61,VALID,0.589063,
2008-11-18, 00:27:04,VALID,1006.19,VALID,0,VALID,95.0931,VALID,0,VALID,23.965,VALID,71,VALID,0.529297,
2008-11-18, 00:28:04,VALID,1006.18,VALID,0,VALID,95.0855,VALID,0,VALID,23.9668,VALID,71,VALID,0.336719,
2008-11-18, 00:29:04,VALID,1006.16,VALID,0,VALID,95.0779,VALID,0,VALID,23.9668,VALID,71,VALID,0.0980469,
2008-11-18, 00:30:04,VALID,1006.14,VALID,0,VALID,95.0703,VALID,0,VALID,23.9455,VALID,66,VALID,0.364062,
2008-11-18, 00:31:04,VALID,1006.14,VALID,0,VALID,95.0855,VALID,0,VALID,23.9473,VALID,63,VALID,0.426562,
2008-11-18, 00:32:04,VALID,1006.11,VALID,0,VALID,95.0703,VALID,0.105969,VALID,23.9668,VALID,63,VALID,0.157813,
2008-11-18, 00:33:04,VALID,1006.09,VALID,0,VALID,95.1008,VALID,0,VALID,23.9668,VALID,64,VALID,0.0742188,
2008-11-18, 00:34:04,VALID,1006.09,VALID,0,VALID,95.0703,VALID,0,VALID,23.9668,VALID,64,VALID,0.225391,
2008-11-18, 00:35:04,VALID,1006.05,VALID,0,VALID,95.0626,VALID,0,VALID,23.9668,VALID,82,VALID,0.564062,
2008-11-18, 00:36:04,VALID,1006.04,VALID,0,VALID,95.0779,VALID,0,VALID,23.9473,VALID,83,VALID,0.444141,
2008-11-18, 00:37:04,VALID,1006.02,VALID,0,VALID,95.0779,VALID,0,VALID,23.9473,VALID,83,VALID,0.342187,
2008-11-18, 00:38:04,VALID,1005.99,VALID,0,VALID,95.0626,VALID,0,VALID,23.9473,VALID,83,VALID,0.276953,
2008-11-18, 00:39:04,VALID,1005.98,VALID,0,VALID,95.0779,VALID,0.105969,VALID,23.9455,VALID,83,VALID,0.416406,
2008-11-18, 00:40:04,VALID,1006,VALID,0,VALID,95.0779,VALID,0,VALID,23.9668,VALID,83,VALID,0.0425781,
2008-11-18, 00:41:04,VALID,1005.99,VALID,0,VALID,95.0855,VALID,0,VALID,23.9473,VALID,83,VALID,0,
2008-11-18, 00:42:04,VALID,1006,VALID,0,VALID,95.0779,VALID,0,VALID,23.9455,VALID,83,VALID,0.0199219,
2008-11-18, 00:43:04,VALID,1005.99,VALID,0,VALID,95.0779,VALID,0,VALID,23.9863,VALID,87,VALID,0.514844,
2008-11-18, 00:44:04,VALID,1005.99,VALID,0,VALID,95.0703,VALID,0,VALID,23.9668,VALID,118,VALID,0.464063,
2008-11-18, 00:45:04,VALID,1006.01,VALID,0,VALID,95.0703,VALID,0,VALID,23.965,VALID,117,VALID,0.466016,
2008-11-18, 00:46:04,VALID,1006.05,VALID,0,VALID,95.0855,VALID,0,VALID,23.9668,VALID,118,VALID,0.294531,
2008-11-18, 00:47:04,VALID,1006.02,VALID,0,VALID,95.0779,VALID,0,VALID,23.9668,VALID,118,VALID,0.505078,
2008-11-18, 00:48:04,VALID,1006.04,VALID,0,VALID,95.0779,VALID,0,VALID,23.9863,VALID,97,VALID,0.429297,
2008-11-18, 00:49:04,VALID,1006.04,VALID,0,VALID,95.0779,VALID,0,VALID,23.9668,VALID,80,VALID,0.841797,
2008-11-18, 00:50:04,VALID,1005.99,VALID,0,VALID,95.0703,VALID,0,VALID,23.9455,VALID,59,VALID,0.542188,
2008-11-18, 00:51:04,VALID,1006,VALID,0,VALID,95.055,VALID,0,VALID,23.926,VALID,77,VALID,0.871484,
2008-11-18, 00:52:04,VALID,1005.99,VALID,0,VALID,95.0474,VALID,0,VALID,23.9473,VALID,67,VALID,0.838672,
2008-11-18, 00:53:04,VALID,1005.99,VALID,0,VALID,95.0474,VALID,0,VALID,23.9065,VALID,79,VALID,0.574609,
2008-11-18, 00:54:04,VALID,1006.01,VALID,0,VALID,95.0245,VALID,0,VALID,23.9278,VALID,83,VALID,0.791016,
2008-11-18, 00:55:04,VALID,1006.03,VALID,0,VALID,95.0245,VALID,0,VALID,23.9065,VALID,103,VALID,0.851563,
2008-11-18, 00:56:04,VALID,1006.04,VALID,0,VALID,95.0321,VALID,0.105969,VALID,23.926,VALID,84,VALID,0.934766,
2008-11-18, 00:57:04,VALID,1006.04,VALID,0,VALID,95.0398,VALID,0,VALID,23.9084,VALID,90,VALID,0.964453,
2008-11-18, 00:58:04,VALID,1006.04,VALID,0,VALID,95.0245,VALID,0,VALID,23.9084,VALID,86,VALID,0.564453,
2008-11-18, 00:59:04,VALID,1006.02,VALID,0,VALID,95.0245,VALID,0,VALID,23.8889,VALID,77,VALID,1.05391,
2008-11-18, 01:00:04,VALID,1006.01,VALID,0,VALID,95.0169,VALID,0,VALID,23.8889,VALID,85,VALID,0.753516,
2008-11-18, 01:01:04,VALID,1006.02,VALID,0,VALID,95.0245,VALID,0,VALID,23.8676,VALID,97,VALID,0.936719,
2008-11-18, 01:02:04,VALID,1005.97,VALID,0,VALID,95.0245,VALID,0,VALID,23.8889,VALID,97,VALID,0.548437,
2008-11-18, 01:03:04,VALID,1005.95,VALID,0,VALID,95.0474,VALID,0,VALID,23.8694,VALID,76,VALID,0.407031,
2008-11-18, 01:04:04,VALID,1005.94,VALID,0,VALID,95.0474,VALID,0,VALID,23.8871,VALID,88,VALID,0.424609,
2008-11-18, 01:05:04,VALID,1005.94,VALID,0,VALID,95.0626,VALID,0,VALID,23.8676,VALID,91,VALID,0.971875,
2008-11-18, 01:06:04,VALID,1005.93,VALID,0,VALID,95.0474,VALID,0,VALID,23.8676,VALID,82,VALID,0.987891,
2008-11-18, 01:07:04,VALID,1005.93,VALID,0,VALID,95.0626,VALID,0,VALID,23.8889,VALID,48,VALID,0.352344,
2008-11-18, 01:08:04,VALID,1005.96,VALID,0,VALID,95.0626,VALID,0,VALID,23.8694,VALID,56,VALID,0.537109,
2008-11-18, 01:09:04,VALID,1005.93,VALID,0,VALID,95.0474,VALID,0,VALID,23.8286,VALID,50,VALID,0.580469,
2008-11-18, 01:10:04,VALID,1005.93,VALID,0,VALID,95.0779,VALID,0,VALID,23.8694,VALID,50,VALID,0.490234,
2008-11-18, 01:11:04,VALID,1005.94,VALID,0,VALID,95.0398,VALID,0,VALID,23.8304,VALID,52,VALID,0.680469,
2008-11-18, 01:12:04,VALID,1005.93,VALID,0,VALID,95.0626,VALID,0.105969,VALID,23.8286,VALID,67,VALID,0.453906,
2008-11-18, 01:13:04,VALID,1005.95,VALID,0,VALID,95.0855,VALID,0,VALID,23.8304,VALID,55,VALID,0.371094,
2008-11-18, 01:14:04,VALID,1005.94,VALID,0,VALID,95.0703,VALID,0,VALID,23.8304,VALID,54,VALID,0.482422,
2008-11-18, 01:15:04,VALID,1005.92,VALID,0,VALID,95.0779,VALID,0,VALID,23.8091,VALID,58,VALID,0.278906,
2008-11-18, 01:16:04,VALID,1005.94,VALID,0,VALID,95.0779,VALID,0,VALID,23.8109,VALID,58,VALID,0.110937,
2008-11-18, 01:17:04,VALID,1005.95,VALID,0,VALID,95.0779,VALID,0,VALID,23.8304,VALID,20,VALID,0.511328,
2008-11-18, 01:18:04,VALID,1005.94,VALID,0,VALID,95.0703,VALID,0,VALID,23.8304,VALID,20,VALID,0.339063,
2008-11-18, 01:19:04,VALID,1005.93,VALID,0,VALID,95.0855,VALID,0,VALID,23.8109,VALID,21,VALID,0.272266,
2008-11-18, 01:20:04,VALID,1005.91,VALID,0,VALID,95.0855,VALID,0,VALID,23.8517,VALID,20,VALID,0.263672,
2008-11-18, 01:21:04,VALID,1005.93,VALID,0,VALID,95.0931,VALID,0,VALID,23.8091,VALID,15,VALID,0.323047,
2008-11-18, 01:22:04,VALID,1005.93,VALID,0,VALID,95.1084,VALID,0,VALID,23.8304,VALID,15,VALID,0.301172,
2008-11-18, 01:23:04,VALID,1005.9,VALID,0,VALID,95.0931,VALID,0,VALID,23.8109,VALID,27,VALID,0.450781,
2008-11-18, 01:24:04,VALID,1005.91,VALID,0,VALID,95.1008,VALID,0,VALID,23.8304,VALID,28,VALID,0.260156,
2008-11-18, 01:25:04,VALID,1005.91,VALID,0,VALID,95.1236,VALID,0,VALID,23.8091,VALID,28,VALID,0.314453,
2008-11-18, 01:26:04,VALID,1005.93,VALID,0,VALID,95.1313,VALID,0,VALID,23.8109,VALID,28,VALID,0.0140625,
2008-11-18, 01:27:04,VALID,1005.92,VALID,0,VALID,95.1313,VALID,0,VALID,23.7896,VALID,28,VALID,0.242969,
2008-11-18, 01:28:04,VALID,1005.9,VALID,0,VALID,95.1389,VALID,0,VALID,23.8286,VALID,28,VALID,0.0699219,
2008-11-18, 01:29:04,VALID,1005.89,VALID,0,VALID,95.1313,VALID,0,VALID,23.8499,VALID,28,VALID,0.128125,
2008-11-18, 01:30:04,VALID,1005.87,VALID,0,VALID,95.1542,VALID,0,VALID,23.8499,VALID,28,VALID,0,
2008-11-18, 01:31:04,VALID,1005.9,VALID,0,VALID,95.1618,VALID,0,VALID,23.8694,VALID,28,VALID,0,
2008-11-18, 01:32:04,VALID,1005.86,VALID,0,VALID,95.1542,VALID,0,VALID,23.9084,VALID,28,VALID,0.0183594,
2008-11-18, 01:33:04,VALID,1005.86,VALID,0,VALID,95.177,VALID,0,VALID,23.8694,VALID,28,VALID,0.248828,
2008-11-18, 01:34:04,VALID,1005.87,VALID,0,VALID,95.1694,VALID,0,VALID,23.8499,VALID,92,VALID,0.198437,
2008-11-18, 01:35:04,VALID,1005.85,VALID,0,VALID,95.1694,VALID,0,VALID,23.8499,VALID,92,VALID,0.253125,
2008-11-18, 01:36:04,VALID,1005.85,VALID,0,VALID,95.1618,VALID,0,VALID,23.8286,VALID,92,VALID,0.135937,
2008-11-18, 01:37:04,VALID,1005.85,VALID,0,VALID,95.1847,VALID,0,VALID,23.8889,VALID,92,VALID,0.319141,
2008-11-18, 01:38:04,VALID,1005.84,VALID,0,VALID,95.1694,VALID,0,VALID,23.8499,VALID,90,VALID,0.381641,
2008-11-18, 01:39:04,VALID,1005.82,VALID,0,VALID,95.1999,VALID,0,VALID,23.9278,VALID,90,VALID,0.0277344,
2008-11-18, 01:40:04,VALID,1005.81,VALID,0,VALID,95.177,VALID,0,VALID,23.8871,VALID,90,VALID,0.179297,
2008-11-18, 01:41:04,VALID,1005.78,VALID,0,VALID,95.1999,VALID,0,VALID,23.9278,VALID,90,VALID,0.212109,
2008-11-18, 01:42:04,VALID,1005.76,VALID,0,VALID,95.177,VALID,0,VALID,23.9065,VALID,90,VALID,0,
2008-11-18, 01:43:04,VALID,1005.76,VALID,0,VALID,95.177,VALID,0,VALID,23.9278,VALID,90,VALID,0.309766,
2008-11-18, 01:44:04,VALID,1005.72,VALID,0,VALID,95.1847,VALID,0,VALID,23.9278,VALID,90,VALID,0.0105469,
2008-11-18, 01:45:04,VALID,1005.73,VALID,0,VALID,95.177,VALID,0,VALID,23.9278,VALID,90,VALID,0.238281,
2008-11-18, 01:46:04,VALID,1005.72,VALID,0,VALID,95.1542,VALID,0,VALID,23.9084,VALID,89,VALID,0.466406,
2008-11-18, 01:47:04,VALID,1005.73,VALID,0,VALID,95.1313,VALID,0,VALID,23.8676,VALID,83,VALID,0.518359,
2008-11-18, 01:48:04,VALID,1005.72,VALID,0,VALID,95.1313,VALID,0,VALID,23.9084,VALID,119,VALID,0.254297,
2008-11-18, 01:49:04,VALID,1005.71,VALID,0,VALID,95.116,VALID,0,VALID,23.9473,VALID,99,VALID,0.511719,
2008-11-18, 01:50:04,VALID,1005.7,VALID,0,VALID,95.1008,VALID,0,VALID,23.9668,VALID,118,VALID,0.436328,
2008-11-18, 01:51:04,VALID,1005.7,VALID,0,VALID,95.0855,VALID,0,VALID,23.9668,VALID,147,VALID,0.470703,
2008-11-18, 01:52:04,VALID,1005.68,VALID,0,VALID,95.0703,VALID,0,VALID,23.9473,VALID,153,VALID,0.427344,
2008-11-18, 01:53:04,VALID,1005.69,VALID,0,VALID,95.0474,VALID,0,VALID,23.9473,VALID,158,VALID,0.799609,
2008-11-18, 01:54:04,VALID,1005.66,VALID,0,VALID,95.0093,VALID,0,VALID,23.9278,VALID,160,VALID,0.706641,
2008-11-18, 01:55:04,VALID,1005.66,VALID,0,VALID,95.0016,VALID,0,VALID,23.9278,VALID,165,VALID,0.650391,
2008-11-18, 01:56:04,VALID,1005.62,VALID,0,VALID,94.9635,VALID,0,VALID,23.9278,VALID,166,VALID,0.885547,
2008-11-18, 01:57:04,VALID,1005.61,VALID,0,VALID,94.9635,VALID,0,VALID,23.8889,VALID,163,VALID,0.754687,
2008-11-18, 01:58:04,VALID,1005.59,VALID,0,VALID,94.9406,VALID,0,VALID,23.9084,VALID,141,VALID,0.798828,
2008-11-18, 01:59:04,VALID,1005.61,VALID,0,VALID,94.9101,VALID,0,VALID,23.8481,VALID,150,VALID,0.592969,
2008-11-18, 02:00:04,VALID,1005.59,VALID,0,VALID,94.9178,VALID,0,VALID,23.8676,VALID,155,VALID,0.439453,
2008-11-18, 02:01:04,VALID,1005.62,VALID,0,VALID,94.9101,VALID,0,VALID,23.8694,VALID,155,VALID,0.363672,
2008-11-18, 02:02:04,VALID,1005.62,VALID,0,VALID,94.9101,VALID,0,VALID,23.8889,VALID,148,VALID,0.297266,
2008-11-18, 02:03:04,VALID,1005.6,VALID,0,VALID,94.9101,VALID,0,VALID,23.8694,VALID,140,VALID,0.322656,
2008-11-18, 02:04:04,VALID,1005.6,VALID,0,VALID,94.9025,VALID,0,VALID,23.8889,VALID,138,VALID,0.177734,
2008-11-18, 02:05:04,VALID,1005.58,VALID,0,VALID,94.9254,VALID,0,VALID,23.9084,VALID,102,VALID,0.483203,
2008-11-18, 02:06:04,VALID,1005.6,VALID,0,VALID,94.9406,VALID,0,VALID,23.8871,VALID,63,VALID,0.534375,
2008-11-18, 02:07:04,VALID,1005.59,VALID,0,VALID,94.9178,VALID,0,VALID,23.8889,VALID,63,VALID,0.664063,
2008-11-18, 02:08:04,VALID,1005.59,VALID,0,VALID,94.9101,VALID,0,VALID,23.8889,VALID,63,VALID,0.464453,
2008-11-18, 02:09:04,VALID,1005.56,VALID,0,VALID,94.9178,VALID,0,VALID,23.8889,VALID,63,VALID,0.136328,
2008-11-18, 02:10:04,VALID,1005.58,VALID,0,VALID,94.9025,VALID,0,VALID,23.9084,VALID,48,VALID,0.407031,
2008-11-18, 02:11:04,VALID,1005.58,VALID,0,VALID,94.8873,VALID,0,VALID,23.8889,VALID,48,VALID,0.262891,
2008-11-18, 02:12:04,VALID,1005.55,VALID,0,VALID,94.8796,VALID,0,VALID,23.8889,VALID,43,VALID,0.289063,
2008-11-18, 02:13:04,VALID,1005.55,VALID,0,VALID,94.8568,VALID,0,VALID,23.8694,VALID,33,VALID,0.252344,
2008-11-18, 02:14:04,VALID,1005.57,VALID,0,VALID,94.872,VALID,0,VALID,23.8694,VALID,33,VALID,0,
2008-11-18, 02:15:04,VALID,1005.57,VALID,0,VALID,94.8568,VALID,0,VALID,23.8889,VALID,33,VALID,0,
2008-11-18, 02:16:04,VALID,1005.53,VALID,0,VALID,94.8491,VALID,0,VALID,23.8481,VALID,33,VALID,0,
2008-11-18, 02:17:04,VALID,1005.53,VALID,0,VALID,94.8491,VALID,0,VALID,23.8694,VALID,33,VALID,0,
2008-11-18, 02:18:04,VALID,1005.5,VALID,0,VALID,94.8415,VALID,0,VALID,23.8694,VALID,33,VALID,0,
2008-11-18, 02:19:04,VALID,1005.48,VALID,0,VALID,94.8186,VALID,0,VALID,23.8694,VALID,33,VALID,0,
2008-11-18, 02:20:04,VALID,1005.48,VALID,0,VALID,94.811,VALID,0,VALID,23.8694,VALID,33,VALID,0,
2008-11-18, 02:21:04,VALID,1005.48,VALID,0,VALID,94.811,VALID,0,VALID,23.8889,VALID,45,VALID,0,
2008-11-18, 02:22:04,VALID,1005.45,VALID,0,VALID,94.8034,VALID,0,VALID,23.8694,VALID,66,VALID,0.442187,
2008-11-18, 02:23:04,VALID,1005.44,VALID,0,VALID,94.7805,VALID,0,VALID,23.8676,VALID,68,VALID,0.364062,
2008-11-18, 02:24:04,VALID,1005.42,VALID,0,VALID,94.7729,VALID,0.105969,VALID,23.8852,VALID,77,VALID,0.397656,
2008-11-18, 02:25:04,VALID,1005.4,VALID,0,VALID,94.7652,VALID,0.105969,VALID,23.8658,VALID,77,VALID,0.407813,
2008-11-18, 02:26:04,VALID,1005.39,VALID,0,VALID,94.75,VALID,0.105969,VALID,23.8658,VALID,77,VALID,0.101953,
2008-11-18, 02:27:04,VALID,1005.36,VALID,0,VALID,94.7652,VALID,0.105969,VALID,23.9065,VALID,77,VALID,0.112109,
2008-11-18, 02:28:04,VALID,1005.35,VALID,0,VALID,94.7652,VALID,0.105969,VALID,23.926,VALID,77,VALID,0,
2008-11-18, 02:29:04,VALID,1005.31,VALID,0,VALID,94.7652,VALID,0.105969,VALID,23.926,VALID,156,VALID,0.748828,
2008-11-18, 02:30:04,VALID,1005.31,VALID,0,VALID,94.7424,VALID,0.211938,VALID,23.9242,VALID,159,VALID,0.766406,
2008-11-18, 02:31:04,VALID,1005.32,VALID,0,VALID,94.75,VALID,0.211938,VALID,23.8852,VALID,147,VALID,0.846484,
2008-11-18, 02:32:04,VALID,1005.33,VALID,0,VALID,94.7271,VALID,0.105969,VALID,23.8871,VALID,143,VALID,1.02539,
2008-11-18, 02:33:04,VALID,1005.3,VALID,0,VALID,94.7119,VALID,0.105969,VALID,23.9065,VALID,139,VALID,0.751562,
2008-11-18, 02:34:04,VALID,1005.3,VALID,0,VALID,94.7195,VALID,0.105969,VALID,23.8871,VALID,149,VALID,0.783984,
2008-11-18, 02:35:04,VALID,1005.29,VALID,0,VALID,94.7042,VALID,0.105969,VALID,23.9065,VALID,146,VALID,0.627734,
2008-11-18, 02:36:04,VALID,1005.32,VALID,0,VALID,94.7347,VALID,0.211938,VALID,23.8871,VALID,157,VALID,0.477734,
2008-11-18, 02:37:04,VALID,1005.31,VALID,0,VALID,94.7729,VALID,0.105969,VALID,23.9065,VALID,167,VALID,0.517187,
2008-11-18, 02:38:04,VALID,1005.31,VALID,0,VALID,94.7729,VALID,0.211938,VALID,23.8852,VALID,156,VALID,0.212109,
2008-11-18, 02:39:04,VALID,1005.29,VALID,0,VALID,94.7881,VALID,0,VALID,23.9084,VALID,110,VALID,0.626562,
2008-11-18, 02:40:04,VALID,1005.28,VALID,0,VALID,94.7957,VALID,0.105969,VALID,23.8871,VALID,109,VALID,0.336328,
2008-11-18, 02:41:04,VALID,1005.3,VALID,0,VALID,94.8186,VALID,0.105969,VALID,23.8871,VALID,92,VALID,0.530078,
2008-11-18, 02:42:04,VALID,1005.28,VALID,0,VALID,94.811,VALID,0.105969,VALID,23.9084,VALID,66,VALID,0.389844,
2008-11-18, 02:43:04,VALID,1005.25,VALID,0,VALID,94.811,VALID,0.105969,VALID,23.8889,VALID,61,VALID,0,
2008-11-18, 02:44:04,VALID,1005.25,VALID,0,VALID,94.8262,VALID,0,VALID,23.8676,VALID,26,VALID,0.661719,
2008-11-18, 02:45:04,VALID,1005.25,VALID,0,VALID,94.811,VALID,0,VALID,23.8694,VALID,51,VALID,0.431641,
2008-11-18, 02:46:04,VALID,1005.24,VALID,0,VALID,94.7881,VALID,0,VALID,23.8694,VALID,68,VALID,0.360156,
2008-11-18, 02:47:04,VALID,1005.26,VALID,0,VALID,94.7652,VALID,0.105969,VALID,23.8499,VALID,68,VALID,0.161719,
2008-11-18, 02:48:04,VALID,1005.27,VALID,0,VALID,94.7652,VALID,0.105969,VALID,23.8481,VALID,68,VALID,0.0382813,
2008-11-18, 02:49:04,VALID,1005.22,VALID,0,VALID,94.7805,VALID,0,VALID,23.8889,VALID,68,VALID,0.265625,
2008-11-18, 02:50:04,VALID,1005.26,VALID,0,VALID,94.7576,VALID,0,VALID,23.8889,VALID,63,VALID,0.579297,
2008-11-18, 02:51:04,VALID,1005.23,VALID,0,VALID,94.7271,VALID,0,VALID,23.8694,VALID,63,VALID,0.291797,
2008-11-18, 02:52:04,VALID,1005.22,VALID,0,VALID,94.7424,VALID,0.105969,VALID,23.8481,VALID,64,VALID,0.201172,
2008-11-18, 02:53:04,VALID,1005.2,VALID,0,VALID,94.7424,VALID,0,VALID,23.8481,VALID,79,VALID,0.45,
2008-11-18, 02:54:04,VALID,1005.19,VALID,0,VALID,94.7424,VALID,0.105969,VALID,23.9084,VALID,79,VALID,0.247266,
2008-11-18, 02:55:04,VALID,1005.19,VALID,0,VALID,94.7576,VALID,0.105969,VALID,23.8676,VALID,79,VALID,0.00195313,
2008-11-18, 02:56:04,VALID,1005.18,VALID,0,VALID,94.7729,VALID,0,VALID,23.9065,VALID,79,VALID,0.00507812,
2008-11-18, 02:57:04,VALID,1005.16,VALID,0,VALID,94.7576,VALID,0,VALID,23.8871,VALID,79,VALID,0.0808594,
2008-11-18, 02:58:04,VALID,1005.16,VALID,0,VALID,94.7652,VALID,0,VALID,23.8676,VALID,79,VALID,0,
2008-11-18, 02:59:04,VALID,1005.15,VALID,0,VALID,94.7576,VALID,0.105969,VALID,23.8676,VALID,79,VALID,0,
2008-11-18, 03:00:04,VALID,1005.16,VALID,0,VALID,94.7652,VALID,0,VALID,23.9084,VALID,79,VALID,0.161719,
2008-11-18, 03:01:04,VALID,1005.17,VALID,0,VALID,94.7576,VALID,0,VALID,23.8889,VALID,79,VALID,0.424609,
2008-11-18, 03:02:04,VALID,1005.16,VALID,0,VALID,94.7042,VALID,0.105969,VALID,23.8889,VALID,79,VALID,0.332422,
2008-11-18, 03:03:04,VALID,1005.18,VALID,0,VALID,94.689,VALID,0,VALID,23.9473,VALID,77,VALID,0.348047,
2008-11-18, 03:04:04,VALID,1005.17,VALID,0,VALID,94.6432,VALID,0,VALID,23.9084,VALID,68,VALID,0.435937,
2008-11-18, 03:05:04,VALID,1005.16,VALID,0,VALID,94.6356,VALID,0,VALID,23.9278,VALID,47,VALID,0.4125,
2008-11-18, 03:06:04,VALID,1005.15,VALID,0,VALID,94.628,VALID,0.105969,VALID,23.9084,VALID,47,VALID,0.411719,
2008-11-18, 03:07:04,VALID,1005.14,VALID,0,VALID,94.6356,VALID,0,VALID,23.9065,VALID,48,VALID,0.19375,
2008-11-18, 03:08:04,VALID,1005.12,VALID,0,VALID,94.6127,VALID,0,VALID,23.9278,VALID,51,VALID,0.224609,
2008-11-18, 03:09:04,VALID,1005.11,VALID,0,VALID,94.5898,VALID,0,VALID,23.9084,VALID,51,VALID,0.146484,
2008-11-18, 03:10:04,VALID,1005.11,VALID,0,VALID,94.5898,VALID,0,VALID,23.9065,VALID,19,VALID,0.38125,
2008-11-18, 03:11:04,VALID,1005.13,VALID,0,VALID,94.5822,VALID,0,VALID,23.9084,VALID,17,VALID,0.400781,
2008-11-18, 03:12:04,VALID,1005.11,VALID,0,VALID,94.5898,VALID,0,VALID,23.8889,VALID,341,VALID,0.563672,
2008-11-18, 03:13:04,VALID,1005.13,VALID,0,VALID,94.6051,VALID,0,VALID,23.8871,VALID,339,VALID,0.582812,
2008-11-18, 03:14:04,VALID,1005.16,VALID,0,VALID,94.6127,VALID,0,VALID,23.8889,VALID,309,VALID,0.386328,
2008-11-18, 03:15:04,VALID,1005.18,VALID,0,VALID,94.6432,VALID,0,VALID,23.8889,VALID,309,VALID,0.0519531,
2008-11-18, 03:16:04,VALID,1005.22,VALID,0,VALID,94.6661,VALID,0,VALID,23.8889,VALID,309,VALID,0,
2008-11-18, 03:17:04,VALID,1005.23,VALID,0,VALID,94.689,VALID,0,VALID,23.9084,VALID,309,VALID,0.00429688,
2008-11-18, 03:18:04,VALID,1005.24,VALID,0,VALID,94.7042,VALID,0,VALID,23.9084,VALID,309,VALID,0,
2008-11-18, 03:19:04,VALID,1005.27,VALID,0,VALID,94.7042,VALID,0,VALID,23.9278,VALID,311,VALID,0.196094,
2008-11-18, 03:20:04,VALID,1005.29,VALID,0,VALID,94.75,VALID,0,VALID,23.8871,VALID,315,VALID,0.353125,
2008-11-18, 03:21:04,VALID,1005.31,VALID,0,VALID,94.75,VALID,0,VALID,23.8676,VALID,48,VALID,0.367969,
2008-11-18, 03:22:04,VALID,1005.3,VALID,0,VALID,94.7729,VALID,0,VALID,23.8871,VALID,48,VALID,0.366406,
2008-11-18, 03:23:04,VALID,1005.32,VALID,0,VALID,94.7729,VALID,0,VALID,23.8871,VALID,48,VALID,0.259766,
2008-11-18, 03:24:04,VALID,1005.35,VALID,0,VALID,94.7881,VALID,0,VALID,23.8871,VALID,48,VALID,0.301953,
2008-11-18, 03:25:04,VALID,1005.35,VALID,0,VALID,94.7805,VALID,0,VALID,23.8871,VALID,48,VALID,0.270312,
2008-11-18, 03:26:04,VALID,1005.36,VALID,0,VALID,94.7805,VALID,0,VALID,23.9084,VALID,48,VALID,0.375391,
2008-11-18, 03:27:04,VALID,1005.34,VALID,0,VALID,94.7576,VALID,0,VALID,23.8889,VALID,74,VALID,0.585938,
2008-11-18, 03:28:04,VALID,1005.34,VALID,0,VALID,94.7424,VALID,0,VALID,23.8694,VALID,78,VALID,0.310547,
2008-11-18, 03:29:04,VALID,1005.38,VALID,0,VALID,94.7424,VALID,0,VALID,23.8871,VALID,101,VALID,0.818359,
2008-11-18, 03:30:04,VALID,1005.37,VALID,0,VALID,94.7042,VALID,0,VALID,23.9084,VALID,92,VALID,0.958984,
2008-11-18, 03:31:04,VALID,1005.34,VALID,0,VALID,94.6661,VALID,0,VALID,23.9084,VALID,97,VALID,1.01484,
2008-11-18, 03:32:04,VALID,1005.34,VALID,0,VALID,94.6585,VALID,0,VALID,23.9278,VALID,99,VALID,0.752734,
2008-11-18, 03:33:04,VALID,1005.36,VALID,0,VALID,94.5898,VALID,0,VALID,23.9491,VALID,129,VALID,0.886328,
2008-11-18, 03:34:04,VALID,1005.35,VALID,0,VALID,94.5288,VALID,0,VALID,23.9278,VALID,121,VALID,0.929688,
2008-11-18, 03:35:04,VALID,1005.35,VALID,0,VALID,94.4526,VALID,0,VALID,23.9455,VALID,133,VALID,0.810547,
2008-11-18, 03:36:04,VALID,1005.36,VALID,0,VALID,94.4145,VALID,0,VALID,23.9863,VALID,116,VALID,0.369922,
2008-11-18, 03:37:04,VALID,1005.37,VALID,0,VALID,94.3458,VALID,0.105969,VALID,23.9863,VALID,105,VALID,0.419531,
2008-11-18, 03:38:04,VALID,1005.4,VALID,0,VALID,94.2848,VALID,0.105969,VALID,23.9845,VALID,105,VALID,0.110937,
2008-11-18, 03:39:04,VALID,1005.38,VALID,0,VALID,94.2314,VALID,0,VALID,23.965,VALID,104,VALID,0.291016,
2008-11-18, 03:40:04,VALID,1005.39,VALID,0,VALID,94.1552,VALID,0,VALID,23.9863,VALID,119,VALID,0.624219,
2008-11-18, 03:41:04,VALID,1005.43,VALID,0,VALID,94.0637,VALID,0,VALID,23.965,VALID,124,VALID,0.835156,
2008-11-18, 03:42:04,VALID,1005.42,VALID,0,VALID,93.9417,VALID,0,VALID,23.9863,VALID,113,VALID,0.671875,
2008-11-18, 03:43:04,VALID,1005.47,VALID,0,VALID,93.9035,VALID,0,VALID,23.9845,VALID,135,VALID,0.690625,
2008-11-18, 03:44:04,VALID,1005.49,VALID,0,VALID,93.9112,VALID,0,VALID,24.0253,VALID,124,VALID,0.469922,